Medicine Lodge, KS

7:11 PM CDT on April 19, 2018 (GMT -0500)
Medicine Lodge

Weather History for KP28 - May, 2013

Change the Weather History Date:

Wednesday, May 22, 2013

  Actual Average Record
Temperature  
Mean Temperature 64 °F 69 °F  
Max Temperature 80 °F 81 °F 103 °F (1948)
Min Temperature 47 °F 57 °F 35 °F (1931)
Degree Days  
Heating Degree Days 1 1  
Month to date heating degree days 111 64  
Since 1 July heating degree days 4516 4449  
Cooling Degree Days 0 5  
Month to date cooling degree days 47 73  
Year to date cooling degree days 68 97  
Growing Degree Days 13 (Base 50)    
Moisture  
Dew Point 48 °F    
Average Humidity 61    
Maximum Humidity 89    
Minimum Humidity 32    
Precipitation  
Precipitation 0.00 in 0.12 in 2.17 in (1896)
Month to date precipitation 1.65 2.22  
Year to date precipitation 9.40 8.66  
Snow  
Snow 0.00 in 0.00 in - ()
Month to date snowfall 0.0 0.0  
Since 1 July snowfall 25.0 8.5  
Snow Depth 0.00 in    
Sea Level Pressure  
Sea Level Pressure 29.87 in    
Wind  
Wind Speed 7 mph (NNW)    
Max Wind Speed 16 mph    
Max Gust Speed 22 mph    
T = Trace of Precipitation, MM = Missing Value Source: NWS Daily Summary

Daily Weather History Graph

Daily Weather History Graph

Search for Another Location

Airport or City:

Astronomy

May. 22, 2013 Rise Set
Actual Time 6:20 AM CDT 8:42 PM CDT
Civil Twilight 5:50 AM CDT 9:12 PM CDT
Nautical Twilight 5:13 AM CDT 9:48 PM CDT
Astronomical Twilight 4:33 AM CDT 10:29 PM CDT
Moon 6:08 PM CDT (5/22) 4:21 AM CDT (5/22)
Length of Visible Light 15h 21m
Length of Day
14h 21m
Waxing Gibbous, 91% of the Moon is Illuminated
May 22
Waxing Gibbous
May 24
Full
May 31
Last Quarter
Jun 8
New
Jun 16
First Quarter

Hourly Weather History & Observations

Time (CDT) Temp. Dew Point Humidity Pressure Visibility Wind Dir Wind Speed Gust Speed Precip Events Conditions
12:56 AM 54.0 °F 50.0 °F 86% 29.83 in - North 3.5 mph - N/A   Unknown
1:56 AM 52.0 °F 48.0 °F 86% 29.83 in - North 4.6 mph - N/A   Unknown
2:56 AM 51.1 °F 46.0 °F 83% 29.83 in - North 6.9 mph - N/A   Unknown
3:56 AM 50.0 °F 46.0 °F 86% 29.83 in - North 8.1 mph - N/A   Unknown
4:56 AM 48.0 °F 45.0 °F 89% 29.85 in - North 8.1 mph - N/A   Unknown
5:56 AM 48.0 °F 45.0 °F 89% 29.86 in - North 8.1 mph - N/A   Unknown
6:56 AM 48.0 °F 45.0 °F 89% 29.88 in - North 6.9 mph - N/A   Unknown
7:56 AM 54.0 °F 46.9 °F 77% 29.90 in - North 5.8 mph - N/A   Unknown
8:56 AM 59.0 °F 48.0 °F 67% 29.92 in - North 9.2 mph - N/A   Unknown
9:56 AM 62.1 °F 46.9 °F 58% 29.94 in - WNW 11.5 mph 17.3 mph N/A   Unknown
10:56 AM 64.0 °F 46.9 °F 54% 29.93 in - NNW 11.5 mph - N/A   Unknown
11:56 AM 68.0 °F 48.0 °F 49% 29.92 in - NW 12.7 mph 21.9 mph N/A   Unknown
12:56 PM 69.1 °F 48.0 °F 47% 29.92 in - WNW 9.2 mph - N/A   Unknown
1:56 PM 73.0 °F 48.9 °F 42% 29.89 in - WNW 8.1 mph - N/A   Unknown
2:56 PM 75.9 °F 48.0 °F 37% 29.87 in - West 5.8 mph - N/A   Unknown
3:56 PM 77.0 °F 46.9 °F 34% 29.85 in - WSW 4.6 mph - N/A   Unknown
4:56 PM 78.1 °F 46.9 °F 33% 29.85 in - West 5.8 mph - N/A   Unknown
5:56 PM 77.0 °F 48.0 °F 36% 29.85 in - Calm Calm - N/A   Unknown
6:56 PM 78.1 °F 48.0 °F 35% 29.85 in - SSW 5.8 mph - N/A   Unknown
7:56 PM 75.9 °F 51.1 °F 42% 29.85 in - ESE 3.5 mph - N/A   Unknown
8:56 PM 72.0 °F 52.0 °F 49% 29.86 in - SE 5.8 mph - N/A   Unknown
9:56 PM 69.1 °F 52.0 °F 54% 29.87 in - ESE 5.8 mph - N/A   Unknown
10:56 PM 64.9 °F 52.0 °F 63% 29.91 in - East 8.1 mph - N/A   Unknown
11:56 PM 64.9 °F 51.1 °F 61% 29.91 in - ESE 5.8 mph - N/A   Unknown